Change the Weather History Date:

Tuesday, May 8, 2012

  Actual Average Record
Temperature  
Mean Temperature 50 °F 53 °F  
Max Temperature 70 °F 72 °F 80 °F (2001)
Min Temperature 29 °F 35 °F 28 °F (1998)
Degree Days  
Heating Degree Days 15 12  
Month to date heating degree days 71 102  
Since 1 July heating degree days 5786 6172  
Cooling Degree Days 0 0  
Month to date cooling degree days 0 0  
Year to date cooling degree days 0 0  
Moisture  
Dew Point 30 °F    
Average Humidity 50    
Maximum Humidity 78    
Minimum Humidity 21    
Precipitation  
Precipitation T in 0.05 in 0.19 in (2000)
Month to date precipitation T 0.34  
Year to date precipitation 2.41 4.56  
Sea Level Pressure  
Sea Level Pressure 30.04 in    
Wind  
Wind Speed 6 mph (ENE)    
Max Wind Speed 22 mph    
Max Gust Speed 29 mph    
Visibility 10 miles    
Events Rain    
T = Trace of Precipitation, MM = Missing Value Source: NWS Daily Summary

Daily Weather History Graph

Daily Weather History Graph

Search for Another Location

Airport or City:

Trip Planner

Search our weather history database for the weather conditions in past years. The results will help you decide how hot, cold, wet, or windy it might be!

Date:

Astronomy

May. 08, 2012 Rise Set
Actual Time 6:11 AM MDT 8:10 PM MDT
Civil Twilight 5:42 AM MDT 8:39 PM MDT
Nautical Twilight 5:08 AM MDT 9:14 PM MDT
Astronomical Twilight 4:30 AM MDT 9:52 PM MDT
Moon 11:22 PM MDT (5/8) 8:24 AM MDT (5/8)
Length of Visible Light 14h 56m
Length of Day
13h 59m
Waning Gibbous, 90% of the Moon is Illuminated
May 8
Waning Gibbous
May 12
Last Quarter
May 20
New
May 28
First Quarter
Jun 4
Full

Hourly Weather History & Observations

Time (MDT) Temp. Windchill Dew Point Humidity Pressure Visibility Wind Dir Wind Speed Gust Speed Precip Events Conditions
12:53 AM 35.1 °F 30.1 °F 27.0 °F 72% 30.02 in 10.0 mi ENE 5.8 mph - N/A   Clear
1:53 AM 36.0 °F 33.3 °F 28.0 °F 73% 30.03 in 10.0 mi ESE 3.5 mph - N/A   Clear
2:53 AM 33.1 °F 26.9 °F 27.0 °F 78% 30.02 in 10.0 mi ENE 6.9 mph - N/A   Clear
3:53 AM 30.9 °F - 25.0 °F 79% 30.04 in 10.0 mi Calm Calm - N/A   Clear
4:53 AM 30.9 °F 25.2 °F 25.0 °F 79% 30.06 in 10.0 mi East 5.8 mph - N/A   Clear
5:53 AM 30.0 °F 26.5 °F 25.0 °F 82% 30.08 in 10.0 mi South 3.5 mph - N/A   Clear
6:53 AM 30.9 °F - 25.0 °F 79% 30.12 in 10.0 mi Calm Calm - N/A   Clear
7:53 AM 43.0 °F - 28.9 °F 58% 30.10 in 10.0 mi Calm Calm - N/A   Clear
8:53 AM 52.0 °F - 32.0 °F 47% 30.09 in 10.0 mi Calm Calm - N/A   Clear
9:53 AM 57.0 °F - 34.0 °F 42% 30.07 in 10.0 mi Variable 5.8 mph - N/A   Clear
10:53 AM 64.0 °F - 34.0 °F 33% 30.07 in 10.0 mi SE 10.4 mph 19.6 mph N/A   Mostly Cloudy
11:53 AM 63.0 °F - 30.9 °F 30% 30.07 in 10.0 mi Calm Calm - N/A   Partly Cloudy
12:53 PM 66.9 °F - 32.0 °F 27% 30.04 in 10.0 mi South 10.4 mph 18.4 mph N/A   Partly Cloudy
1:53 PM 68.0 °F - 30.0 °F 24% 30.01 in 10.0 mi SW 9.2 mph 16.1 mph N/A   Partly Cloudy
2:53 PM 57.9 °F - 37.0 °F 46% 30.05 in 10.0 mi NNE 17.3 mph 27.6 mph 0.00 in Rain Light Rain
3:00 PM 57.2 °F - 35.6 °F 44% 30.14 in 10.0 mi North 17.3 mph 26.5 mph 0.00 in Rain Light Rain
3:53 PM 64.9 °F - 30.9 °F 28% 30.03 in 10.0 mi North 12.7 mph - 0.00 in   Scattered Clouds
4:53 PM 68.0 °F - 30.0 °F 24% 30.01 in 10.0 mi NNW 10.4 mph - N/A   Clear
5:53 PM 68.0 °F - 27.0 °F 21% 30.00 in 10.0 mi NNE 4.6 mph - N/A   Clear
6:53 PM 66.9 °F - 28.0 °F 23% 29.98 in 10.0 mi NE 13.8 mph 17.3 mph N/A   Clear
7:53 PM 62.1 °F - 30.0 °F 30% 29.97 in 10.0 mi NE 8.1 mph - N/A   Clear
8:53 PM 55.0 °F - 30.9 °F 40% 29.99 in 10.0 mi NE 5.8 mph - N/A   Clear
9:53 PM 48.0 °F - 30.9 °F 52% 30.01 in 10.0 mi NNE 3.5 mph - N/A   Clear
10:53 PM 43.0 °F 40.3 °F 28.9 °F 58% 30.03 in 10.0 mi East 4.6 mph - N/A   Clear
11:53 PM 44.1 °F - 28.9 °F 55% 30.04 in 10.0 mi Calm Calm - N/A   Clear